Wind_Speed
26 26 27 27 28 29 29 31 31 31 31 32 32 32 32 33 34 35 34 34 34 34 34 33 33 33 33 33 33 33 33 33 34 34 35 35 36 37 37 37 37 38 39
26 26 26 27 28 29 30 31 32 32 32 32 32 32 33 33 33 34 34 33 33 34 34 33 33 33 33 34 34 34 34 35 36 37 37 37 38 38 38 38 39 39 39
25 27 27 28 29 30 31 31 32 32 32 32 33 33 34 34 34 33 33 33 33 32 32 33 33 33 34 34 35 36 36 36 37 38 39 39 39 39 40 40 40 40 41
24 26 27 28 29 30 31 31 32 33 33 33 34 34 34 33 33 33 33 33 33 34 34 34 34 35 36 36 37 37 38 39 39 40 40 41 41 41 40 41 42 42 42
25 26 27 27 28 29 30 30 32 33 33 34 34 34 33 33 33 33 33 34 35 35 35 36 37 37 38 39 39 40 40 41 41 41 42 42 42 42 41 41 42 43 44
24 25 26 26 27 28 29 30 30 31 32 32 32 33 33 32 33 34 35 35 36 37 38 38 39 40 40 41 41 42 42 43 43 43 43 43 43 43 43 42 42 42 44
23 24 25 26 27 28 30 31 32 32 32 32 33 33 33 34 35 36 37 37 38 39 40 41 42 43 43 43 44 44 45 45 45 45 45 45 45 45 45 44 44 43 44
23 24 25 27 28 29 30 31 32 32 32 33 34 35 35 36 37 38 39 39 40 42 43 44 44 45 45 45 46 46 46 46 46 46 46 46 46 46 46 46 46 45 45
22 23 24 25 27 28 29 29 30 30 31 32 34 35 37 37 38 40 41 42 43 44 46 46 46 46 46 47 47 47 48 48 48 48 48 47 47 47 47 47 47 46 46
21 21 23 24 26 27 28 29 31 32 32 33 34 35 37 38 39 40 41 43 44 45 46 46 46 47 47 48 48 49 49 49 49 49 49 49 49 49 48 48 47 47 47
21 22 24 25 26 27 28 29 31 32 33 34 35 36 37 39 40 41 42 44 45 45 46 47 47 48 48 48 49 49 49 49 49 49 50 50 49 49 48 48 48 48 48
22 23 24 25 26 27 29 30 32 33 35 36 37 38 39 41 42 43 44 45 46 46 47 47 48 48 48 49 50 50 50 50 50 50 50 49 48 48 48 48 47 47 47
22 23 24 26 27 28 30 31 33 35 37 38 39 40 41 43 43 44 46 46 47 47 48 48 49 49 49 50 50 50 49 49 49 49 49 49 48 48 48 47 47 47 48
23 24 26 27 29 30 32 33 35 36 37 39 41 42 43 43 44 46 47 48 48 48 49 49 49 50 50 50 50 50 49 49 49 49 49 48 48 48 47 47 47 47 47
26 27 28 30 31 33 34 36 37 38 39 41 42 43 44 45 46 47 48 48 49 49 49 50 50 50 50 50 50 50 49 49 48 48 48 48 47 47 47 46 46 46 46
30 31 32 33 34 36 37 39 40 40 41 42 43 44 45 47 48 49 49 50 50 50 51 51 51 51 51 50 49 49 49 48 48 48 47 47 47 46 46 46 45 45 45
32 33 35 36 37 38 39 40 41 42 43 44 44 46 47 48 49 50 50 50 51 51 51 51 51 51 50 50 49 49 48 48 48 47 46 46 46 46 45 45 45 45 44
34 35 37 38 39 40 41 42 42 43 44 45 46 47 48 49 49 50 50 50 50 51 51 51 51 50 50 49 49 49 48 47 46 46 46 45 45 44 44 44 44 44 44
37 38 39 40 41 42 42 43 44 45 46 47 48 49 50 50 50 50 51 51 51 51 51 51 50 49 49 49 48 47 47 46 46 45 45 44 44 43 43 43 43 43 43
39 40 41 42 43 44 44 45 46 47 48 49 50 51 51 52 52 52 52 51 51 51 50 50 49 48 47 47 47 46 45 44 44 44 44 44 44 43 43 43 43 43 43
41 42 43 44 45 46 47 48 48 49 50 51 51 52 53 53 53 53 52 51 50 50 49 48 47 46 46 46 45 44 43 43 43 43 42 43 43 43 43 43 43 43 43
43 44 45 46 47 48 49 50 50 51 51 52 53 53 53 53 53 52 51 51 50 49 48 46 45 45 45 44 43 43 43 42 42 42 42 42 43 43 42 42 42 42 42
45 47 47 48 49 49 50 51 51 52 53 53 53 53 53 53 52 51 50 50 49 48 46 45 44 44 43 43 43 43 42 42 42 41 41 42 42 42 42 42 41 41 41
47 48 49 50 50 51 51 52 52 53 53 53 53 53 52 52 51 50 49 48 47 47 46 45 44 43 43 43 43 42 42 42 41 41 41 41 41 41 41 41 41 41 41
49 50 50 51 51 52 52 52 52 52 53 52 52 51 51 50 49 48 48 47 46 46 45 44 43 43 43 43 42 41 41 41 41 41 41 41 41 40 40 40 40 40 40
50 51 51 51 51 51 51 51 51 52 52 51 51 50 50 50 49 48 47 46 45 44 44 43 43 42 42 42 41 41 40 40 40 39 39 39 39 39 39 39 39 39 40
Wind_Direction
240 243 246 250 253 255 257 261 262 265 267 269 271 273 275 276 277 278 280 281 281 282 283 285 286 286 286 287 287 287 287 286 286 285 285 286 286 286 286 285 283 281 279
242 244 247 251 255 257 259 262 263 265 267 270 272 275 277 279 280 281 281 281 282 283 283 285 286 286 286 287 287 287 287 287 286 286 287 286 286 286 287 286 284 282 280
245 246 249 253 256 258 260 262 264 266 268 270 273 276 280 280 280 281 282 282 283 283 284 286 287 288 288 288 288 288 288 288 288 287 287 287 287 287 287 286 283 282 280
247 249 252 255 257 259 262 263 265 267 269 272 275 277 280 280 281 282 283 283 284 285 285 286 287 287 287 288 288 288 289 290 289 289 288 287 286 286 285 285 283 281 280
249 252 254 257 259 261 264 265 268 269 271 273 275 277 279 279 280 281 283 284 285 285 285 287 287 287 287 287 288 289 290 290 290 290 289 288 286 285 285 284 282 281 281
252 254 256 258 261 263 265 267 270 270 271 274 276 278 279 280 281 282 283 284 285 286 285 286 287 286 287 287 288 289 289 289 289 289 289 288 287 286 285 284 282 281 280
254 256 257 261 263 266 267 268 270 272 274 275 277 279 279 280 282 283 283 284 285 286 286 286 286 287 288 288 289 288 288 288 288 288 287 286 286 285 285 284 282 281 280
260 260 261 263 265 267 270 271 272 273 275 276 278 279 280 281 282 283 285 285 286 286 287 286 287 287 288 288 288 289 288 288 288 287 286 286 285 285 284 283 282 281 279
262 263 266 266 266 269 272 273 275 276 276 278 279 279 281 282 283 285 286 287 288 288 288 288 289 288 288 288 288 289 289 288 288 287 286 285 285 284 284 282 281 280 279
265 268 270 270 270 273 274 275 277 277 278 280 282 282 282 283 285 286 287 288 289 289 289 289 290 289 289 288 289 289 289 288 287 286 285 285 284 284 283 282 280 279 279
268 269 272 273 274 275 277 280 281 280 281 283 284 285 286 287 287 288 289 290 290 290 290 290 290 290 289 289 289 289 288 287 286 285 285 284 283 283 283 282 280 279 279
272 273 275 276 278 279 280 282 283 284 285 286 286 287 287 288 289 289 290 291 291 291 291 291 290 290 290 289 289 288 288 287 286 285 285 284 283 283 282 281 281 280 279
275 277 279 280 282 282 284 286 286 287 287 287 288 289 289 289 290 291 291 291 291 291 291 291 290 289 289 289 288 287 287 286 286 285 284 283 283 282 282 281 281 280 280
278 279 281 282 284 285 287 288 289 289 289 289 289 290 290 291 292 292 292 292 291 291 291 291 290 289 289 288 288 287 287 286 286 285 284 283 282 282 282 282 282 281 281
281 282 282 284 286 287 288 289 290 290 291 291 291 291 291 292 292 292 292 292 292 291 291 290 290 290 289 288 287 287 286 286 286 286 285 284 283 282 282 283 283 282 282
282 284 285 286 288 289 289 290 290 291 292 292 292 293 293 293 293 293 292 292 292 291 291 290 290 289 288 288 287 287 286 286 286 286 285 284 283 282 283 283 283 283 283
285 286 287 288 288 289 290 291 292 292 293 293 294 294 294 294 293 293 293 292 292 291 290 290 289 288 288 287 287 286 287 287 286 285 285 284 283 283 283 282 283 283 284
287 288 289 290 290 291 291 292 292 292 293 294 295 295 295 295 295 294 293 293 292 291 291 290 289 288 288 287 287 287 286 286 286 285 284 283 283 283 283 283 283 284 284
288 288 289 290 291 291 292 293 292 293 294 294 295 295 295 295 295 295 294 293 292 292 291 291 290 289 288 288 288 287 287 286 285 284 284 283 283 284 284 283 283 283 284
288 289 290 291 291 292 292 292 293 294 294 295 295 295 295 295 295 295 294 293 293 292 292 291 291 289 288 288 287 286 287 286 285 284 284 284 284 284 284 284 284 284 284
290 290 291 291 292 292 292 293 293 294 294 295 295 295 295 295 295 295 294 294 293 293 293 292 290 289 288 287 286 286 286 285 285 284 284 284 284 284 284 284 285 284 284
291 291 291 292 292 292 292 293 293 293 293 294 295 295 295 295 295 294 294 294 293 293 292 292 290 289 287 287 286 286 286 285 284 283 283 283 284 284 284 285 285 285 284
291 291 292 292 292 292 292 293 294 294 294 295 295 295 295 295 295 295 294 293 293 292 291 291 290 289 287 287 286 286 285 284 284 283 283 283 284 284 284 285 285 285 285
291 292 292 292 292 293 293 294 294 295 295 295 295 295 295 295 295 294 294 293 292 291 290 289 288 288 287 287 286 285 285 285 284 283 283 284 284 284 284 285 286 286 286
292 292 293 293 293 293 294 294 295 295 295 295 295 295 295 295 294 294 293 293 292 291 290 289 287 287 286 286 286 285 284 284 284 284 284 285 285 285 285 286 287 288 288
292 292 293 293 294 294 294 294 295 295 295 295 295 295 295 294 294 293 292 292 292 291 290 289 288 287 286 285 285 284 284 285 285 285 285 285 286 286 286 287 288 288 289
Height
5781 5783 5785 5786 5787 5788 5789 5790 5790 5790 5790 5789 5788 5787 5787 5786 5785 5784 5783 5781 5780 5778 5776 5774 5773 5771 5769 5767 5765 5763 5761 5759 5757 5755 5753 5751 5749 5746 5744 5742 5740 5738 5737
5776 5778 5779 5780 5781 5782 5783 5783 5783 5783 5783 5782 5781 5780 5779 5778 5777 5776 5775 5773 5772 5770 5768 5767 5765 5763 5761 5759 5757 5755 5753 5751 5749 5747 5745 5743 5741 5738 5735 5733 5730 5729 5727
5771 5772 5774 5774 5775 5776 5776 5776 5776 5776 5776 5775 5774 5773 5772 5771 5770 5768 5767 5766 5764 5762 5761 5759 5757 5755 5754 5751 5749 5747 5745 5743 5740 5738 5736 5733 5731 5729 5726 5723 5720 5718 5717
5765 5766 5767 5768 5769 5769 5769 5769 5769 5769 5769 5768 5767 5766 5765 5763 5762 5761 5759 5758 5756 5755 5753 5751 5749 5747 5745 5743 5741 5738 5736 5733 5731 5728 5725 5723 5721 5718 5716 5713 5710 5708 5706
5759 5760 5761 5762 5762 5762 5763 5763 5762 5762 5761 5761 5760 5758 5757 5756 5754 5753 5752 5750 5749 5747 5745 5743 5741 5739 5736 5734 5731 5729 5726 5723 5721 5718 5715 5712 5709 5707 5705 5703 5700 5697 5695
5754 5754 5755 5756 5756 5756 5756 5756 5755 5754 5754 5753 5752 5750 5749 5748 5747 5745 5744 5742 5740 5738 5736 5734 5731 5729 5726 5724 5721 5718 5716 5713 5710 5707 5704 5701 5698 5695 5693 5691 5688 5686 5683
5748 5749 5749 5750 5750 5750 5749 5749 5748 5747 5746 5745 5744 5742 5741 5740 5738 5736 5735 5733 5731 5729 5726 5724 5721 5718 5716 5713 5710 5707 5704 5701 5698 5695 5692 5689 5686 5683 5680 5678 5676 5674 5672
5742 5743 5743 5743 5743 5743 5742 5741 5740 5739 5738 5737 5735 5734 5732 5731 5729 5727 5725 5723 5721 5718 5716 5713 5710 5707 5704 5701 5698 5695 5692 5689 5686 5683 5680 5677 5673 5670 5668 5665 5663 5661 5659
5737 5737 5737 5737 5736 5736 5735 5734 5732 5731 5730 5728 5727 5725 5723 5721 5720 5718 5715 5713 5710 5708 5705 5702 5698 5695 5692 5689 5686 5683 5680 5677 5673 5670 5667 5664 5661 5657 5655 5652 5650 5648 5646
5731 5731 5730 5730 5730 5729 5728 5727 5726 5724 5722 5720 5718 5716 5714 5712 5710 5708 5705 5702 5699 5696 5693 5690 5686 5683 5680 5677 5673 5670 5666 5663 5660 5657 5654 5650 5647 5644 5641 5639 5636 5634 5632
5725 5725 5724 5724 5723 5722 5721 5719 5718 5716 5714 5712 5709 5707 5705 5702 5700 5697 5694 5691 5688 5685 5681 5678 5674 5671 5667 5664 5660 5657 5653 5650 5646 5643 5640 5637 5634 5631 5628 5625 5622 5620 5618
5720 5719 5718 5717 5716 5714 5713 5711 5709 5707 5705 5703 5700 5698 5695 5692 5689 5686 5683 5680 5676 5673 5669 5665 5662 5658 5654 5651 5647 5643 5640 5636 5633 5629 5626 5623 5620 5617 5614 5611 5609 5606 5604
5713 5712 5711 5710 5708 5707 5705 5703 5701 5698 5696 5693 5691 5688 5685 5682 5678 5675 5672 5668 5664 5661 5657 5653 5649 5645 5641 5637 5633 5630 5626 5622 5619 5616 5612 5609 5606 5604 5601 5598 5595 5593 5590
5706 5705 5704 5702 5700 5699 5697 5694 5692 5689 5686 5683 5680 5677 5674 5670 5667 5663 5660 5656 5652 5648 5644 5640 5636 5631 5627 5623 5620 5616 5612 5609 5605 5602 5599 5596 5593 5590 5587 5584 5582 5579 5576
5699 5698 5696 5694 5692 5690 5687 5685 5682 5679 5676 5673 5669 5666 5662 5659 5655 5651 5647 5643 5639 5635 5631 5627 5622 5618 5614 5610 5606 5602 5599 5595 5592 5588 5585 5582 5579 5576 5573 5571 5568 5565 5563
5691 5689 5687 5685 5682 5680 5677 5674 5671 5668 5665 5661 5658 5654 5650 5647 5643 5639 5634 5630 5626 5621 5617 5613 5608 5604 5600 5596 5592 5589 5585 5582 5578 5575 5572 5569 5566 5563 5560 5557 5554 5552 5549
5682 5680 5677 5675 5672 5669 5666 5663 5660 5657 5653 5649 5646 5642 5638 5634 5630 5625 5621 5616 5612 5607 5603 5599 5594 5590 5586 5582 5579 5575 5572 5569 5565 5562 5558 5555 5552 5549 5547 5544 5541 5538 5536
5672 5670 5667 5664 5661 5658 5655 5652 5648 5645 5641 5637 5633 5629 5625 5621 5616 5611 5607 5602 5598 5593 5589 5585 5580 5577 5573 5568 5565 5562 5558 5555 5552 5548 5545 5542 5539 5536 5533 5531 5528 5525 5523
5662 5659 5656 5653 5650 5646 5643 5640 5636 5632 5628 5625 5620 5616 5611 5607 5603 5598 5593 5588 5584 5579 5575 5570 5566 5562 5559 5555 5551 5548 5545 5542 5538 5535 5532 5529 5526 5523 5521 5518 5516 5513 5510
5650 5647 5644 5641 5638 5634 5630 5627 5623 5619 5615 5611 5607 5602 5597 5593 5588 5584 5579 5574 5569 5565 5561 5557 5552 5548 5545 5541 5537 5534 5531 5528 5526 5522 5519 5516 5514 5511 5508 5505 5503 5500 5497
5639 5635 5632 5628 5625 5621 5617 5613 5609 5606 5601 5597 5592 5588 5583 5578 5573 5569 5564 5559 5555 5551 5547 5543 5539 5535 5531 5527 5524 5520 5518 5515 5512 5509 5507 5504 5501 5498 5495 5492 5490 5487 5484
5626 5622 5619 5615 5611 5607 5603 5599 5595 5591 5587 5582 5578 5573 5568 5563 5558 5554 5549 5545 5540 5537 5533 5529 5525 5521 5517 5514 5511 5508 5505 5502 5499 5497 5494 5492 5489 5486 5483 5480 5477 5475 5472
5613 5610 5606 5602 5598 5593 5589 5585 5581 5576 5572 5567 5562 5558 5553 5548 5543 5539 5534 5530 5526 5522 5519 5515 5512 5509 5505 5501 5498 5495 5492 5489 5487 5484 5482 5479 5476 5473 5471 5468 5465 5462 5460
5600 5596 5592 5588 5584 5579 5574 5570 5566 5561 5557 5552 5547 5542 5538 5534 5529 5524 5520 5516 5512 5508 5505 5501 5498 5495 5492 5489 5485 5482 5480 5477 5474 5472 5469 5467 5464 5461 5459 5456 5453 5450 5448
5586 5582 5578 5574 5569 5565 5560 5555 5550 5546 5541 5537 5532 5527 5523 5518 5514 5510 5506 5502 5498 5494 5491 5488 5484 5482 5479 5476 5473 5470 5467 5464 5462 5459 5457 5454 5452 5449 5447 5444 5441 5438 5435
5572 5567 5563 5559 5554 5550 5545 5540 5535 5530 5526 5522 5517 5512 5508 5504 5500 5496 5493 5488 5484 5481 5477 5474 5471 5468 5466 5463 5460 5457 5455 5452 5449 5447 5445 5442 5440 5437 5435 5432 5429 5426 5423